(161749) = 1994 CX6 = 2001 UL225 = 2004 JG52 = 2006 ST274

Discovered at Mount Lemmon on 2006-09-27 by Mt. Lemmon Survey.

Orbit

Orbit type: Main Belt

Note: WebGL enabled browser required.

epoch2023-09-13.0
epoch JD2460200.5
perihelion date2025-02-01.79628
perihelion JD2460708.29628
argument of perihelion (°)191.58605
ascending node (°)236.16086
inclination (°)2.47363
eccentricity0.0661016
perihelion distance (AU)2.5597140
Tisserand w.r.t. Jupiter3.3
ΔV w.r.t. Earth (km/sec)10.0
semimajor axis (AU)2.7408915
mean anomaly (°)249.70506
mean daily motion (°/day)0.21720310
aphelion distance (AU)2.922
period (years)4.54
P-vector [x]0.37885392
P-vector [y]0.85250046
P-vector [z]0.36015645
Q-vector [x]-0.92476191
Q-vector [y]0.36380075
Q-vector [z]0.11164419
absolute magnitude16.67
phase slope0.15
uncertainty0
referenceMPEC 2023-O83
observations used403
oppositions18
arc length (days)10749
first opposition used1994
last opposition used2023
residual rms (arc-secs)0.78
perturbers coarse indicatorM-v
perturbers precise indicator003Ek
first observation date used1994-02-15.0
last observation date used2023-07-22.0
computer nameMPCLINUX
JD of orbit computation2456909.331617
perihelion JD uncertainty (days)1.6093E-04
argument of perihelion uncertainty (°)9.3497E-05
ascending node uncertainty (°)8.7329E-05
inclination uncertainty (°)3.3096E-06
eccentricity uncertainty 3.2570E-08
perihelion distance uncertainty (AU)9.4632E-08
Minimum Orbit Intersection Distances (in AU)
for orbit epoch: 2460200.5, reference: E2023-O83
Mercury2.25089
Venus1.83849
Earth1.57243
Mars0.99359
Jupiter2.26931
Saturn6.47604
Uranus15.6719
Neptune27.2261

Observations

417 total observations over interval: 1994 02 15.27418 – 2023 07 22.478943
These data are available for download (format description).

Date (UT) J2000 RA J2000 Dec Magn Location Ref
1994 02 15.27418 09 13 55.77 +11 59 47.9 19.9 V 691 – Steward Observatory, Kitt Peak-Spacewatch MPC 23192
1994 02 15.28280 09 13 55.30 +11 59 49.8   691 – Steward Observatory, Kitt Peak-Spacewatch MPC 23192
1994 02 15.29110 09 13 54.85 +11 59 52.0   691 – Steward Observatory, Kitt Peak-Spacewatch MPC 23192
1994 02 16.19195 09 13 08.69 +12 03 36.6   691 – Steward Observatory, Kitt Peak-Spacewatch MPC 23192
1994 02 16.22479 09 13 06.92 +12 03 45.5   691 – Steward Observatory, Kitt Peak-Spacewatch MPC 23192
1994 02 16.25755 09 13 05.17 +12 03 53.4 19.8 V 691 – Steward Observatory, Kitt Peak-Spacewatch MPC 23192
2001 09 23.35072 00 52 47.09 +08 45 31.2 19.8   704 – Lincoln Laboratory ETS, New Mexico MPS 213786
2001 09 23.37915 00 52 45.77 +08 45 23.4 20.2   704 – Lincoln Laboratory ETS, New Mexico MPS 213786
2001 09 23.39402 00 52 45.09 +08 45 18.8 19.6   704 – Lincoln Laboratory ETS, New Mexico MPS 213786
2001 10 18.22593 00 33 07.85 +06 22 29.3 20.6   644 – Palomar Mountain/NEAT MPS 192310
2001 10 18.24713 00 33 06.87 +06 22 21.8 20.9   644 – Palomar Mountain/NEAT MPS 192310
2001 10 18.26837 00 33 05.91 +06 22 14.6 20.1   644 – Palomar Mountain/NEAT MPS 192310
2001 10 21.16756 00 31 02.46 +06 05 37.8 20.4 V 691 – Steward Observatory, Kitt Peak-Spacewatch MPC 58482
2001 10 21.17066 00 31 02.32 +06 05 36.7 20.0   704 – Lincoln Laboratory ETS, New Mexico MPC 58482
2001 10 21.18702 00 31 01.54 +06 05 30.8 20.3   704 – Lincoln Laboratory ETS, New Mexico MPC 58482
2001 10 21.18829 00 31 01.56 +06 05 31.0 20.5 V 691 – Steward Observatory, Kitt Peak-Spacewatch MPC 58482
2001 10 21.20338 00 31 00.83 +06 05 25.6 20.5   704 – Lincoln Laboratory ETS, New Mexico MPC 58482
2001 10 21.20908 00 31 00.67 +06 05 23.7 20.8 V 691 – Steward Observatory, Kitt Peak-Spacewatch MPC 58482
2003 01 11.30795 09 00 20.43 +13 19 25.8 21.5 V 291 – LPL/Spacewatch II MPS 192310
2003 01 11.33290 09 00 19.27 +13 19 29.0 21.2 V 291 – LPL/Spacewatch II MPS 192310
2003 01 11.35688 09 00 18.13 +13 19 31.9 21.0 V 291 – LPL/Spacewatch II MPS 192310
2003 03 08.21726 08 18 50.86 +16 02 16.1 20.9 R 926 – Tenagra II Observatory, Nogales MPS 214939
2003 03 08.23200 08 18 50.57 +16 02 17.2 20.4 R 926 – Tenagra II Observatory, Nogales MPS 214939
2003 03 08.24513 08 18 50.35 +16 02 18.6 20.5 R 926 – Tenagra II Observatory, Nogales MPS 214939
2004 05 01.23741 14 59 40.87 -17 47 02.3 21.1 V 291 – LPL/Spacewatch II MPS 110365
2004 05 01.24490 14 59 40.48 -17 47 00.2 22.0 V 291 – LPL/Spacewatch II MPS 110365
2004 05 01.25265 14 59 40.06 -17 46 58.2 21.8 V 291 – LPL/Spacewatch II MPS 110365
2005 07 01.42026 21 33 40.36 -10 59 23.2 21.3 V 691 – Steward Observatory, Kitt Peak-Spacewatch MPS 192310
2005 07 01.43528 21 33 40.10 -10 59 23.7 21.1 V 691 – Steward Observatory, Kitt Peak-Spacewatch MPS 192310
2005 07 01.45014 21 33 39.78 -10 59 24.0 21.5 V 691 – Steward Observatory, Kitt Peak-Spacewatch MPS 192310
2005 08 06.27277 21 10 33.19 -12 19 21.9 20.4   644 – Palomar Mountain/NEAT MPS 192310
2005 08 06.29479 21 10 31.99 -12 19 26.5 19.8   644 – Palomar Mountain/NEAT MPS 192310
2005 08 06.31986 21 10 30.69 -12 19 31.9 20.0   644 – Palomar Mountain/NEAT MPS 192310
2006 09 27.39851 04 44 21.76 +22 35 29.1 21.1 V G96 – Mt. Lemmon Survey MPS 182970
2006 09 27.40549 04 44 21.98 +22 35 29.1 21.1 V G96 – Mt. Lemmon Survey MPS 182970
2006 09 27.41242 04 44 22.16 +22 35 29.5 20.8 V G96 – Mt. Lemmon Survey MPS 182970
2006 09 27.41920 04 44 22.34 +22 35 30.0 21.2 V G96 – Mt. Lemmon Survey MPS 182970
2006 09 27.46265 04 44 23.53 +22 35 30.2 20.7 V G96 – Mt. Lemmon Survey MPS 190545
2006 09 27.46579 04 44 23.60 +22 35 30.3 20.5 V G96 – Mt. Lemmon Survey MPS 190545
2006 09 27.46893 04 44 23.67 +22 35 30.1 20.6 V G96 – Mt. Lemmon Survey MPS 190545
2006 09 27.47205 04 44 23.74 +22 35 30.2 20.8 V G96 – Mt. Lemmon Survey MPS 190545
2006 09 28.36190 04 44 48.44 +22 35 35.9 21.3 V G96 – Mt. Lemmon Survey MPS 182970
2006 09 28.37192 04 44 48.69 +22 35 35.8 20.7 V G96 – Mt. Lemmon Survey MPS 182970
2006 09 28.38174 04 44 48.98 +22 35 36.2 20.6 V G96 – Mt. Lemmon Survey MPS 182970
2006 09 28.39157 04 44 49.30 +22 35 35.1 19.9 V G96 – Mt. Lemmon Survey MPS 182970
2006 11 11.38205 04 36 54.36 +21 39 46.0 19.7 V G96 – Mt. Lemmon Survey MPS 188762
2006 11 11.38648 04 36 54.14 +21 39 45.5 19.8 V G96 – Mt. Lemmon Survey MPS 188762
2006 11 11.39098 04 36 53.92 +21 39 44.6 19.6 V G96 – Mt. Lemmon Survey MPS 188762
2006 11 11.39544 04 36 53.71 +21 39 44.1 19.6 V G96 – Mt. Lemmon Survey MPS 188762
2006 11 15.31662 04 33 42.40 +21 28 58.4 19.4 V 703 – Catalina Sky Survey MPS 190545
2006 11 15.32394 04 33 41.94 +21 28 57.1 19.5 V 703 – Catalina Sky Survey MPS 190545
2006 11 15.33127 04 33 41.65 +21 28 56.4 19.4 V 703 – Catalina Sky Survey MPS 190545
2006 11 15.33860 04 33 41.22 +21 28 55.7 19.6 V 703 – Catalina Sky Survey MPS 190545
2006 11 15.34432 04 33 40.91 +21 28 54.1 20.5 V 691 – Steward Observatory, Kitt Peak-Spacewatch MPS 188762
2006 11 15.36176 04 33 39.98 +21 28 51.1 20.6 V 691 – Steward Observatory, Kitt Peak-Spacewatch MPS 188762
2006 11 15.37913 04 33 39.06 +21 28 48.1 20.8 V 691 – Steward Observatory, Kitt Peak-Spacewatch MPS 188762
2006 11 19.23418 04 30 16.00 +21 17 25.7 20.1 V 691 – Steward Observatory, Kitt Peak-Spacewatch MPS 188762
2006 11 19.25152 04 30 15.03 +21 17 22.5 20.1 V 691 – Steward Observatory, Kitt Peak-Spacewatch MPS 188762
2006 11 19.26884 04 30 14.05 +21 17 19.7 20.0 V 691 – Steward Observatory, Kitt Peak-Spacewatch MPS 188762
2006 11 23.22407 04 26 34.25 +21 04 59.9 20.2 V 691 – Steward Observatory, Kitt Peak-Spacewatch MPS 188762
2006 11 23.24139 04 26 33.26 +21 04 56.6 20.3 V 691 – Steward Observatory, Kitt Peak-Spacewatch MPS 188762
2006 11 23.25870 04 26 32.22 +21 04 53.3 20.6 V 691 – Steward Observatory, Kitt Peak-Spacewatch MPS 188762
2006 11 27.22892 04 22 44.95 +20 52 00.8   691 – Steward Observatory, Kitt Peak-Spacewatch MPS 190545
2006 11 27.24623 04 22 43.92 +20 51 57.4   691 – Steward Observatory, Kitt Peak-Spacewatch MPS 190545
2006 11 27.26353 04 22 42.88 +20 51 54.0   691 – Steward Observatory, Kitt Peak-Spacewatch MPS 190545
2008 02 29.42015 11 57 43.30 -03 22 56.8 21.0 V G96 – Mt. Lemmon Survey MPS 240515
2008 02 29.42699 11 57 43.05 -03 22 55.4 20.3 V G96 – Mt. Lemmon Survey MPS 240515
2008 02 29.43384 11 57 42.73 -03 22 53.0 20.2 V G96 – Mt. Lemmon Survey MPS 240515
2008 02 29.44064 11 57 42.48 -03 22 51.4 20.2 V G96 – Mt. Lemmon Survey MPS 240515
2008 03 10.22469 11 50 15.35 -02 34 18.7 20.7 V 691 – Steward Observatory, Kitt Peak-Spacewatch MPS 243416
2008 03 10.24238 11 50 14.45 -02 34 12.9 20.4 V 691 – Steward Observatory, Kitt Peak-Spacewatch MPS 243416
2008 03 10.26008 11 50 13.60 -02 34 07.1 20.0 V 691 – Steward Observatory, Kitt Peak-Spacewatch MPS 243416
2008 04 09.26942 11 27 43.05 +00 12 57.0 20.6 V G96 – Mt. Lemmon Survey MPS 246614
2008 04 09.27499 11 27 42.87 +00 12 58.6 20.2 V G96 – Mt. Lemmon Survey MPS 246614
2008 04 09.28068 11 27 42.66 +00 13 00.3 20.2 V G96 – Mt. Lemmon Survey MPS 246614
2008 04 09.28635 11 27 42.51 +00 13 01.5 20.4 V G96 – Mt. Lemmon Survey MPS 246614
2010 09 29.84166 00 07 14.69 +04 10 37.6 19.7 V J75 – OAM Observatory, La Sagra MPS 350777
2010 09 29.85558 00 07 13.98 +04 10 32.6 19.3 V J75 – OAM Observatory, La Sagra MPS 350777
2010 09 29.86913 00 07 13.26 +04 10 28.4 19.5 V J75 – OAM Observatory, La Sagra MPS 350777
2010 10 02.16114 00 05 23.70 +03 56 48.6 20.1 V 691 – Steward Observatory, Kitt Peak-Spacewatch MPS 350777
2010 10 02.17900 00 05 22.84 +03 56 42.6 20.1 V 691 – Steward Observatory, Kitt Peak-Spacewatch MPS 350777
2010 10 02.19683 00 05 21.93 +03 56 36.1 20.0 V 691 – Steward Observatory, Kitt Peak-Spacewatch MPS 350777
2010 10 08.16237 00 00 46.75 +03 21 12.9 20.5 V 691 – Steward Observatory, Kitt Peak-Spacewatch MPS 350777
2010 10 08.18368 00 00 45.76 +03 21 05.8 20.2 V 691 – Steward Observatory, Kitt Peak-Spacewatch MPS 350777
2010 10 08.20153 00 00 44.94 +03 20 59.5 20.1 V 691 – Steward Observatory, Kitt Peak-Spacewatch MPS 350777
2010 10 12.16122 23 57 55.09 +02 58 15.3 20.4 V 691 – Steward Observatory, Kitt Peak-Spacewatch MPS 353327
